STARLINK-2742 (48688 NORAD) Tracking and Keplerian Element Data

This shows tracking and keplerian element data for the satellite.

Feedback or suggestion? Click here.




ElementValue
Catalog48688
NameSTARLINK-2742
Epoch Orbit173
Epoch Day170.58334491
Epoch Year2021
RAAN306.2432
Inclination53.0477
Eccentricity0.0001464
Argument of Perigee39.6332
Mean Anonmoly92.9594
Mean Motion15.73218112
Decay Rate-8.078E-05
L11 48688U 21044BC 21170.58334491 -.00008078 00000-0 -53135-4 0 9999
L22 48688 53.0477 306.2432 0001464 39.6332 92.9594 15.73218112 1733

Live tracking and technical data element details for STARLINK-2742 (NORAD 48688). STARLINK-2742 can be tracked NOW for your location showing map with azimuth and elevation plus other details from your city location.

Track the satellite on the map from your city or location and see movement details for azimuth, elevation, latitude, longitude, range, height, and movement on the map or in text.







IsCatalogInMostPopularTable: catalog: 48688, numindb: 4
Update: records affected: 1



GetName: 48688 STARLINK-2742

Hit Count: updated at: Mon, 21 Jun 2021 05:01:18 GMT